{"data":{"norad_id":48663,"epoch":"2026-05-25T03:57:23.502240Z","epoch_age_seconds":70996,"freshness":"FRESH","line1":"1 48663U 21044AB  26145.16485535  .00000604  00000+0  31230-4 0  9995","line2":"2 48663  53.1602 108.2099 0001159  77.6795 282.4337 15.31705182275682","mean_motion":15.31705182,"eccentricity":0.0001159,"inclination_deg":53.1602,"raan_deg":108.2099,"arg_perigee_deg":77.6795,"mean_anomaly_deg":282.4337,"bstar":3.123e-5,"rev_number":27568,"period_min":94.012869899659,"perigee_km":469.93076494343,"apogee_km":471.51833105026,"semimajor_km":6848.8615479968,"source":"CELESTRAK","updated_at":"2026-05-25T13:38:16.757521Z"}}